This is the latest recevied weather packets stored in our database for station/object KC5DAQ-25. If no packets are shown the sender has not sent any weather packets the latest 10 day(s).
| Time | Temp. | Humidity | Pressure | Rain* | Wind** | Luminosity | Snow |
|---|---|---|---|---|---|---|---|
| 1777826819 | 24.44° C | 52% | 1014.5 hPa | 0 mm | - | 1143 W/m² | - |
| 1777826759 | 24.44° C | 54% | 1014.4 hPa | 0 mm | - | 1143 W/m² | - |
| 1777826700 | 24.44° C | 54% | 1014.5 hPa | 0 mm | - | 1129 W/m² | - |
| 1777826638 | 24.44° C | 53% | 1014.5 hPa | 0 mm | - | 1129 W/m² | - |
| 1777826578 | 24.44° C | 56% | 1014.5 hPa | 0 mm | - | 1129 W/m² | - |
| 1777826518 | 24.44° C | 57% | 1014.5 hPa | 0 mm | - | 1129 W/m² | - |
| 1777826458 | 24.44° C | 53% | 1014.5 hPa | 0 mm | - | 1129 W/m² | - |
| 1777826398 | 24.44° C | 53% | 1014.5 hPa | 0 mm | - | 1129 W/m² | - |
| 1777826339 | 24.44° C | 53% | 1014.5 hPa | 0 mm | - | 1129 W/m² | - |
| 1777826278 | 24.44° C | 55% | 1014.5 hPa | 0 mm | - | 1127 W/m² | - |
| 1777826218 | 24.44° C | 55% | 1014.4 hPa | 0 mm | - | 1127 W/m² | - |
| 1777826160 | 24.44° C | 55% | 1014.5 hPa | 0 mm | - | 1120 W/m² | - |
| 1777826099 | 24.44° C | 55% | 1014.4 hPa | 0 mm | - | 1113 W/m² | - |
| 1777826038 | 24.44° C | 55% | 1014.5 hPa | 0 mm | - | 1113 W/m² | - |
| 1777825980 | 24.44° C | 59% | 1014.5 hPa | 0 mm | - | 1118 W/m² | - |
| 1777825919 | 24.44° C | 57% | 1014.4 hPa | 0 mm | - | 1118 W/m² | - |
| 1777825858 | 24.44° C | 57% | 1014.5 hPa | 0 mm | - | 1113 W/m² | - |
| 1777825799 | 23.89° C | 56% | 1014.5 hPa | 0 mm | - | 1101 W/m² | - |
| 1777825738 | 23.89° C | 56% | 1014.5 hPa | 0 mm | - | 1101 W/m² | - |
| 1777825679 | 24.44° C | 56% | 1014.5 hPa | 0 mm | - | 1101 W/m² | - |
| 1777825618 | 24.44° C | 59% | 1014.4 hPa | 0 mm | - | 1101 W/m² | - |
| 1777825558 | 24.44° C | 61% | 1014.4 hPa | 0 mm | - | 1099 W/m² | - |
| 1777825498 | 24.44° C | 61% | 1014.5 hPa | 0 mm | - | 1094 W/m² | - |
| 1777825438 | 24.44° C | 61% | 1014.5 hPa | 0 mm | - | 1094 W/m² | - |
| 1777825378 | 24.44° C | 59% | 1014.4 hPa | 0 mm | - | 1094 W/m² | - |
* Rain latest hour (hover to see other rain measurements)
** Current wind speed in m/s (hover to see current wind gust speed)